Regional Weather Roundup
Issued by NWS Cleveland, OH

Home | Current Version | Previous Version | Graphics & Text | Print | Product List | Glossary On
Versions: 1 2 3 4 5 6 7 8 9 10 11 12 13 14 15 16 17 18 19 20 21 22 23 24 25 26 27 28 29 30 31 32 33 34 35 36 37 38 39 40 41 42 43 44 45 46 47 48 49 50
000
ASUS41 KCLE 251310
RWRCLE
OHIO REGIONAL WEATHER ROUNDUP
NATIONAL WEATHER SERVICE CLEVELAND, OH
900 AM EDT THU MAY 25 2017

NOTE: "FAIR" INDICATES FEW OR NO CLOUDS BELOW 12,000 FEET WITH NO
SIGNIFICANT WEATHER AND/OR OBSTRUCTIONS TO VISIBILITY.

OHZ001>008-015>018-024>027-034-035-043-044-251400-
   NORTHWEST OHIO

CITY           SKY/WX    TMP DP  RH WIND       PRES   REMARKS
DEFIANCE       CLOUDY    59  57  93 N9        29.44R
FINDLAY        CLOUDY    64  57  78 E8        29.41R
TOLEDO EXPRESS CLOUDY    59  58  96 NE13      29.44R
TOLEDO EXEC    CLOUDY    62  60  93 VRB6      29.45R
LIMA           CLOUDY    61  59  93 NE3       29.41R
$$

OHZ009>014-019>023-028>033-038-089-251400-
   NORTHEAST OHIO

CITY           SKY/WX    TMP DP  RH WIND       PRES   REMARKS
CLE-HOPKINS    LGT RAIN  62  58  86 SE7       29.47S
CLE-LAKEFRONT  LGT RAIN  60  56  86 SE6       29.45R FOG
CUY CO. ARPT   DRIZZLE   59  55  88 SE9       29.47R
LORAIN-ELYRIA    N/A    N/A N/A N/A MISG      29.45R
ASHTABULA      LGT RAIN  57  55  93 SE12      29.49S
AKRON-CANTON   LGT RAIN  58  55  90 SE8       29.46R FOG
WOOSTER        LGT RAIN  59  57  93 SE8       29.45R
MANSFIELD      CLOUDY    59  56  89 S8        29.44R
YOUNGSTOWN     LGT RAIN  56  54  93 SE10      29.49R FOG
$$

OHZ042-051>053-060>062-070>072-077>081-251400-
  SOUTHWEST OHIO

CITY           SKY/WX    TMP DP  RH WIND       PRES   REMARKS
CINC-COVINGTON RAIN      57  56  96 W7        29.41R FOG
CINC-LUNKEN    LGT RAIN  58  58 100 S8        29.42R FOG
HAMILTON       LGT RAIN  59  24  26 W3        29.41S
DAYTON         CLOUDY    60  57  89 W5        29.41R
WRIGHT-PAT AFB CLOUDY    60  60 100 S6        29.40R
DAYTON GENERAL CLOUDY    58  57  97 S7        29.40R
WILMINGTON     LGT RAIN  57  57 100 S9        29.42R
$$

OHZ036-037-039>041-045>050-054>059-063>069-073>076-082>088-251400-
  CENTRAL AND SOUTHEAST OHIO

CITY           SKY/WX    TMP DP  RH WIND       PRES   REMARKS
COLUMBUS       LGT RAIN  58  58 100 S12       29.42S FOG
OSU AIRPORT    LGT RAIN  58  58 100 S8        29.42R FOG
BOLTON FIELD   CLOUDY    57  57 100 S10       29.43R
RICKENBACK AFB CLOUDY    58  56  94 S14       29.43R
NEWARK         CLOUDY    60  55  83 SE8       29.43S
MARION         CLOUDY    60  56  86 SE9       29.43R
LANCASTER      LGT RAIN  60  56  86 S9        29.44S
ZANESVILLE     CLOUDY    60  55  83 S9        29.46R
NEW PHILLY     NOT AVBL
$$




USA.gov is the U.S. government's official web portal to all federal, state and local government web resources and services.